Time,TemperatureF,DewpointF,PressureIn,WindDirection,WindDirectionDegrees,WindSpeedMPH,WindSpeedGustMPH,Humidity,HourlyPrecipIn,Conditions,Clouds,dailyrainin,SoftwareType,DateUTC
2014-10-12 00:14:00,60.5,59.0,29.93,ESE,117,0.0,-999.0,96,-99.99,,,0.16,weatherlink.com 1.10,2014-10-12 04:14:00,
2014-10-12 00:29:00,60.8,60.0,29.93,ESE,116,0.0,-999.0,97,-99.99,,,0.16,weatherlink.com 1.10,2014-10-12 04:29:00,
2014-10-12 00:44:00,60.8,60.0,29.93,SE,126,0.0,-999.0,96,-99.99,,,0.00,weatherlink.com 1.10,2014-10-12 04:44:00,
2014-10-12 00:59:00,60.6,60.0,29.93,SE,126,0.0,-999.0,96,-99.99,,,0.00,weatherlink.com 1.10,2014-10-12 04:59:00,
2014-10-12 01:14:00,60.2,59.0,29.93,SSE,157,1.0,-999.0,96,-99.99,,,0.00,weatherlink.com 1.10,2014-10-12 05:14:00,
2014-10-12 01:29:00,60.4,59.0,29.93,SE,144,1.0,-999.0,96,-99.99,,,0.00,weatherlink.com 1.10,2014-10-12 05:29:00,
2014-10-12 01:44:00,61.0,60.0,29.93,ESE,109,2.0,-999.0,97,-99.99,,,0.00,weatherlink.com 1.10,2014-10-12 05:44:00,
2014-10-12 01:59:00,61.6,61.0,29.93,ENE,60,1.0,-999.0,96,-99.99,,,0.00,weatherlink.com 1.10,2014-10-12 05:59:00,
2014-10-12 02:14:00,61.5,60.0,29.93,SE,128,0.0,-999.0,96,-99.99,,,0.00,weatherlink.com 1.10,2014-10-12 06:14:00,
2014-10-12 02:29:00,61.7,61.0,29.93,SSW,203,0.0,-999.0,96,-99.99,,,0.00,weatherlink.com 1.10,2014-10-12 06:29:00,
2014-10-12 02:44:00,61.7,61.0,29.93,East,98,0.0,-999.0,96,-99.99,,,0.00,weatherlink.com 1.10,2014-10-12 06:44:00,
2014-10-12 02:59:00,61.9,61.0,29.93,SSE,148,2.0,-999.0,96,-99.99,,,0.00,weatherlink.com 1.10,2014-10-12 06:59:00,
2014-10-12 03:14:00,61.9,61.0,29.93,SSE,150,0.0,-999.0,96,-99.99,,,0.00,weatherlink.com 1.10,2014-10-12 07:14:00,
2014-10-12 03:29:00,61.6,61.0,29.93,East,87,0.0,-999.0,96,-99.99,,,0.00,weatherlink.com 1.10,2014-10-12 07:29:00,
2014-10-12 03:44:00,61.5,60.0,29.92,SE,127,1.0,-999.0,96,-99.99,,,0.00,weatherlink.com 1.10,2014-10-12 07:44:00,
2014-10-12 03:59:00,61.5,60.0,29.92,East,82,1.0,-999.0,96,-99.99,,,0.00,weatherlink.com 1.10,2014-10-12 07:59:00,
2014-10-12 04:14:00,61.4,60.0,29.92,North,355,0.0,-999.0,96,-99.99,,,0.00,weatherlink.com 1.10,2014-10-12 08:14:00,
2014-10-12 04:29:00,61.2,60.0,29.92,SSE,160,2.0,-999.0,97,-99.99,,,0.00,weatherlink.com 1.10,2014-10-12 08:29:00,
2014-10-12 04:44:00,61.2,60.0,29.93,NNE,31,2.0,-999.0,97,-99.99,,,0.00,weatherlink.com 1.10,2014-10-12 08:44:00,
2014-10-12 04:59:00,61.2,60.0,29.93,SW,225,2.0,-999.0,97,-99.99,,,0.00,weatherlink.com 1.10,2014-10-12 08:59:00,
2014-10-12 05:14:00,61.2,60.0,29.93,SW,225,0.0,-999.0,97,-99.99,,,0.02,weatherlink.com 1.10,2014-10-12 09:14:00,
2014-10-12 05:29:00,61.1,60.0,29.93,SW,225,0.0,-999.0,97,-99.99,,,0.04,weatherlink.com 1.10,2014-10-12 09:29:00,
2014-10-12 05:44:00,61.1,61.0,29.94,SW,225,0.0,-999.0,98,-99.99,,,0.04,weatherlink.com 1.10,2014-10-12 09:44:00,
2014-10-12 05:59:00,61.0,61.0,29.95,SW,225,0.0,-999.0,98,-99.99,,,0.04,weatherlink.com 1.10,2014-10-12 09:59:00,
2014-10-12 06:14:00,61.0,61.0,29.95,SSE,162,0.0,-999.0,98,-99.99,,,0.05,weatherlink.com 1.10,2014-10-12 10:14:00,
2014-10-12 06:29:00,60.8,60.0,29.96,NE,34,0.0,-999.0,98,-99.99,,,0.05,weatherlink.com 1.10,2014-10-12 10:29:00,
2014-10-12 06:44:00,60.7,60.0,29.96,NE,35,0.0,-999.0,98,-99.99,,,0.05,weatherlink.com 1.10,2014-10-12 10:44:00,
2014-10-12 06:59:00,60.8,60.0,29.96,South,177,2.0,-999.0,98,-99.99,,,0.05,weatherlink.com 1.10,2014-10-12 10:59:00,
2014-10-12 07:14:00,61.0,61.0,29.96,SSE,159,0.0,-999.0,99,-99.99,,,0.08,weatherlink.com 1.10,2014-10-12 11:14:00,
2014-10-12 07:29:00,61.1,61.0,29.96,South,169,1.0,-999.0,99,-99.99,,,0.09,weatherlink.com 1.10,2014-10-12 11:29:00,
2014-10-12 07:44:00,60.7,60.0,29.96,SSW,193,3.0,-999.0,98,-99.99,,,0.09,weatherlink.com 1.10,2014-10-12 11:44:00,
2014-10-12 07:59:00,60.7,60.0,29.97,SSW,213,1.0,-999.0,98,-99.99,,,0.09,weatherlink.com 1.10,2014-10-12 11:59:00,
2014-10-12 08:14:00,60.9,61.0,29.98,SW,214,0.0,-999.0,99,-99.99,,,0.09,weatherlink.com 1.10,2014-10-12 12:14:00,
2014-10-12 08:29:00,61.1,61.0,29.98,South,178,1.0,-999.0,99,-99.99,,,0.09,weatherlink.com 1.10,2014-10-12 12:29:00,
2014-10-12 08:44:00,61.3,61.0,29.99,SW,215,0.0,-999.0,99,-99.99,,,0.11,weatherlink.com 1.10,2014-10-12 12:44:00,
2014-10-12 08:59:00,61.3,61.0,30.00,SSE,158,1.0,-999.0,99,-99.99,,,0.15,weatherlink.com 1.10,2014-10-12 12:59:00,
2014-10-12 09:14:00,61.2,61.0,29.99,SE,134,1.0,-999.0,99,-99.99,,,0.18,weatherlink.com 1.10,2014-10-12 13:14:00,
2014-10-12 09:29:00,61.3,61.0,30.00,South,188,0.0,-999.0,99,-99.99,,,0.20,weatherlink.com 1.10,2014-10-12 13:29:00,
2014-10-12 09:44:00,61.4,61.0,30.00,South,188,0.0,-999.0,99,-99.99,,,0.21,weatherlink.com 1.10,2014-10-12 13:44:00,
2014-10-12 09:59:00,61.6,61.0,30.00,SE,142,0.0,-999.0,99,-99.99,,,0.21,weatherlink.com 1.10,2014-10-12 13:59:00,
2014-10-12 10:14:00,61.6,61.0,30.01,South,180,0.0,-999.0,99,-99.99,,,0.21,weatherlink.com 1.10,2014-10-12 14:14:00,
2014-10-12 10:29:00,61.6,61.0,30.01,SSE,150,0.0,-999.0,99,-99.99,,,0.21,weatherlink.com 1.10,2014-10-12 14:29:00,
2014-10-12 10:44:00,62.0,62.0,30.01,SSW,198,2.0,-999.0,99,-99.99,,,0.21,weatherlink.com 1.10,2014-10-12 14:44:00,
2014-10-12 10:59:00,61.9,62.0,30.01,SE,140,2.0,-999.0,99,-99.99,,,0.21,weatherlink.com 1.10,2014-10-12 14:59:00,
2014-10-12 11:14:00,61.8,62.0,30.02,SW,228,0.0,-999.0,99,-99.99,,,0.21,weatherlink.com 1.10,2014-10-12 15:14:00,
2014-10-12 11:29:00,62.0,62.0,30.02,SW,228,0.0,-999.0,99,-99.99,,,0.21,weatherlink.com 1.10,2014-10-12 15:29:00,
2014-10-12 11:44:00,61.8,62.0,30.02,ESE,122,0.0,-999.0,99,-99.99,,,0.21,weatherlink.com 1.10,2014-10-12 15:44:00,
2014-10-12 11:59:00,61.4,61.0,30.02,SSE,150,0.0,-999.0,98,-99.99,,,0.21,weatherlink.com 1.10,2014-10-12 15:59:00,
2014-10-12 12:14:00,61.2,61.0,30.02,NNE,18,0.0,-999.0,99,-99.99,,,0.21,weatherlink.com 1.10,2014-10-12 16:14:00,
2014-10-12 12:29:00,61.1,61.0,30.02,North,355,0.0,-999.0,99,-99.99,,,0.21,weatherlink.com 1.10,2014-10-12 16:29:00,
2014-10-12 12:44:00,61.0,61.0,30.02,North,355,1.0,-999.0,98,-99.99,,,0.21,weatherlink.com 1.10,2014-10-12 16:44:00,
2014-10-12 12:59:00,60.2,60.0,30.02,ESE,107,0.0,-999.0,98,-99.99,,,0.21,weatherlink.com 1.10,2014-10-12 16:59:00,
2014-10-12 13:14:00,59.5,59.0,30.02,ENE,72,0.0,-999.0,98,-99.99,,,0.21,weatherlink.com 1.10,2014-10-12 17:14:00,
2014-10-12 13:29:00,59.1,59.0,30.01,ESE,123,0.0,-999.0,98,-99.99,,,0.21,weatherlink.com 1.10,2014-10-12 17:29:00,
2014-10-12 13:44:00,59.5,59.0,30.01,SE,128,0.0,-999.0,99,-99.99,,,0.23,weatherlink.com 1.10,2014-10-12 17:44:00,
2014-10-12 13:59:00,60.0,60.0,30.01,SSE,157,0.0,-999.0,99,-99.99,,,0.26,weatherlink.com 1.10,2014-10-12 17:59:00,
2014-10-12 14:14:00,59.3,59.0,30.00,SSE,159,0.0,-999.0,98,-99.99,,,0.31,weatherlink.com 1.10,2014-10-12 18:14:00,
2014-10-12 14:29:00,60.2,60.0,30.00,NE,39,0.0,-999.0,99,-99.99,,,0.32,weatherlink.com 1.10,2014-10-12 18:29:00,
2014-10-12 14:44:00,60.1,60.0,29.99,West,271,0.0,-999.0,99,-99.99,,,0.32,weatherlink.com 1.10,2014-10-12 18:44:00,
2014-10-12 14:59:00,60.2,60.0,29.99,North,355,2.0,-999.0,99,-99.99,,,0.32,weatherlink.com 1.10,2014-10-12 18:59:00,
2014-10-12 15:14:00,60.1,60.0,29.99,North,9,0.0,-999.0,99,-99.99,,,0.32,weatherlink.com 1.10,2014-10-12 19:14:00,
2014-10-12 15:29:00,60.2,60.0,29.98,North,9,0.0,-999.0,99,-99.99,,,0.32,weatherlink.com 1.10,2014-10-12 19:29:00,
2014-10-12 15:44:00,60.7,61.0,29.99,West,272,0.0,-999.0,99,-99.99,,,0.32,weatherlink.com 1.10,2014-10-12 19:44:00,
2014-10-12 15:59:00,60.1,60.0,29.99,South,170,0.0,-999.0,98,-99.99,,,0.32,weatherlink.com 1.10,2014-10-12 19:59:00,
2014-10-12 16:14:00,60.5,60.0,29.99,West,276,0.0,-999.0,99,-99.99,,,0.32,weatherlink.com 1.10,2014-10-12 20:14:00,
2014-10-12 16:29:00,60.4,60.0,29.99,NW,315,0.0,-999.0,99,-99.99,,,0.32,weatherlink.com 1.10,2014-10-12 20:29:00,
2014-10-12 16:44:00,59.9,59.0,29.99,NW,315,0.0,-999.0,98,-99.99,,,0.32,weatherlink.com 1.10,2014-10-12 20:44:00,
2014-10-12 16:59:00,59.3,59.0,29.99,NW,321,0.0,-999.0,98,-99.99,,,0.32,weatherlink.com 1.10,2014-10-12 20:59:00,
2014-10-12 17:14:00,59.4,59.0,29.99,NW,321,1.0,-999.0,99,-99.99,,,0.32,weatherlink.com 1.10,2014-10-12 21:14:00,
2014-10-12 17:29:00,59.0,59.0,29.99,NNW,333,0.0,-999.0,98,-99.99,,,0.32,weatherlink.com 1.10,2014-10-12 21:29:00,
2014-10-12 17:44:00,59.0,59.0,30.00,NNW,333,0.0,-999.0,99,-99.99,,,0.32,weatherlink.com 1.10,2014-10-12 21:44:00,
2014-10-12 17:59:00,58.7,59.0,30.00,NNW,333,0.0,-999.0,99,-99.99,,,0.32,weatherlink.com 1.10,2014-10-12 21:59:00,
2014-10-12 18:14:00,58.7,59.0,30.00,NNW,333,0.0,-999.0,99,-99.99,,,0.32,weatherlink.com 1.10,2014-10-12 22:14:00,
2014-10-12 18:29:00,58.6,58.0,30.01,NNW,333,0.0,-999.0,99,-99.99,,,0.32,weatherlink.com 1.10,2014-10-12 22:29:00,
2014-10-12 18:44:00,58.5,58.0,30.02,NNW,333,0.0,-999.0,99,-99.99,,,0.32,weatherlink.com 1.10,2014-10-12 22:44:00,
2014-10-12 18:59:00,58.5,58.0,30.02,ESE,109,0.0,-999.0,99,-99.99,,,0.32,weatherlink.com 1.10,2014-10-12 22:59:00,
2014-10-12 19:14:00,58.1,58.0,30.02,ESE,123,1.0,-999.0,99,-99.99,,,0.33,weatherlink.com 1.10,2014-10-12 23:14:00,
2014-10-12 19:29:00,57.4,57.0,30.02,ENE,78,2.0,-999.0,99,-99.99,,,0.33,weatherlink.com 1.10,2014-10-12 23:29:00,
2014-10-12 19:44:00,57.2,57.0,30.03,ESE,117,1.0,-999.0,99,-99.99,,,0.33,weatherlink.com 1.10,2014-10-12 23:44:00,
2014-10-12 19:59:00,57.1,57.0,30.03,North,355,2.0,-999.0,99,-99.99,,,0.33,weatherlink.com 1.10,2014-10-12 23:59:00,
2014-10-12 20:14:00,57.1,57.0,30.03,North,10,1.0,-999.0,99,-99.99,,,0.33,weatherlink.com 1.10,2014-10-13 00:14:00,
2014-10-12 20:29:00,57.2,57.0,30.04,NNW,348,1.0,-999.0,99,-99.99,,,0.33,weatherlink.com 1.10,2014-10-13 00:29:00,
2014-10-12 20:44:00,57.1,57.0,30.04,NNW,348,0.0,-999.0,99,-99.99,,,0.33,weatherlink.com 1.10,2014-10-13 00:44:00,
2014-10-12 20:59:00,56.8,57.0,30.05,NNW,329,0.0,-999.0,99,-99.99,,,0.33,weatherlink.com 1.10,2014-10-13 00:59:00,
2014-10-12 21:14:00,56.2,56.0,30.06,SSE,159,0.0,-999.0,99,-99.99,,,0.33,weatherlink.com 1.10,2014-10-13 01:14:00,
2014-10-12 21:29:00,55.7,56.0,30.06,ESE,109,4.0,-999.0,99,-99.99,,,0.33,weatherlink.com 1.10,2014-10-13 01:29:00,
2014-10-12 21:44:00,55.6,55.0,30.06,SSE,148,0.0,-999.0,99,-99.99,,,0.33,weatherlink.com 1.10,2014-10-13 01:44:00,
2014-10-12 21:59:00,55.4,55.0,30.07,SSE,147,1.0,-999.0,99,-99.99,,,0.33,weatherlink.com 1.10,2014-10-13 01:59:00,
2014-10-12 22:14:00,55.5,55.0,30.08,North,360,3.0,-999.0,99,-99.99,,,0.33,weatherlink.com 1.10,2014-10-13 02:14:00,
2014-10-12 22:29:00,55.1,55.0,30.09,NE,44,0.0,-999.0,99,-99.99,,,0.33,weatherlink.com 1.10,2014-10-13 02:29:00,
2014-10-12 22:44:00,55.2,55.0,30.08,WSW,238,0.0,-999.0,99,-99.99,,,0.35,weatherlink.com 1.10,2014-10-13 02:44:00,
2014-10-12 22:59:00,55.0,55.0,30.09,NNE,19,1.0,-999.0,99,-99.99,,,0.35,weatherlink.com 1.10,2014-10-13 02:59:00,
2014-10-12 23:14:00,54.7,55.0,30.08,NNW,340,5.0,-999.0,99,-99.99,,,0.35,weatherlink.com 1.10,2014-10-13 03:14:00,
2014-10-12 23:29:00,54.4,54.0,30.08,North,360,5.0,-999.0,99,-99.99,,,0.35,weatherlink.com 1.10,2014-10-13 03:29:00,
2014-10-12 23:44:00,54.0,54.0,30.09,NNE,17,2.0,-999.0,99,-99.99,,,0.35,weatherlink.com 1.10,2014-10-13 03:44:00,
2014-10-12 23:59:00,54.1,54.0,30.09,SE,124,1.0,-999.0,99,-99.99,,,0.35,weatherlink.com 1.10,2014-10-13 03:59:00,